Regional Weather Roundup
Issued by NWS

Home | Current Version | Previous Version | Text Only | Print | Product List | Glossary On
Versions: 1 2 3 4 5 6 7 8 9 10 11 12 13 14 15 16 17 18 19 20 21 22 23 24 25 26 27 28 29 30 31 32 33 34 35 36 37 38 39 40 41 42 43 44 45 46 47 48 49 50
344
ASUS45 KSLC 250610
RWRUT

UTAH REGIONAL WEATHER ROUNDUP
NATIONAL WEATHER SERVICE SALT LAKE CITY UT
1200 AM MDT SAT MAR 25 2017

UTZ001>011-023>025-250700-

NORTHERN UTAH

CITY           SKY/WX    TMP DP  RH WIND       PRES   REMARKS
BRIGHAM CITY     N/A     49  37  63 CALM      30.04F
HILL AFB       CLOUDY    49  31  48 SE6       30.03F
LOGAN          CLOUDY    47  40  76 W6        30.04F
OGDEN          CLOUDY    47  34  60 S6        30.02F
SALT LAKE CITY CLOUDY    53  35  50 SE9       30.02S
WENDOVER       CLOUDY    54  34  46 E5        30.02F
HEBER CITY     CLOUDY    41  28  60 CALM      30.07F

$$

UTZ011>015-024>027-250700-

CENTRAL/NORTHEAST UTAH

CITY           SKY/WX    TMP DP  RH WIND       PRES   REMARKS
PROVO AIRPORT  MOCLDY    44  37  76 E3        30.06F
MOAB/CANYONLAN CLEAR     44  24  45 CALM      30.09F
DELTA          PTCLDY    46  32  57 S14       30.06S
PRICE          CLEAR     39  33  79 NE8       30.13F WCI  33
ROOSEVELT      CLOUDY    43  37  81 CALM      30.14F
VERNAL         CLEAR     42  34  73 W3        30.12F

$$

UTZ013>016-019>022-027-250700-

SOUTHERN UTAH

CITY           SKY/WX    TMP DP  RH WIND       PRES   REMARKS
BRYCE CANYON   CLEAR     31  24  75 S3        30.22S
CEDAR CITY     MOCLDY    45  27  49 W6        30.10F
MILFORD        PTCLDY    45  28  51 S12       30.09F
ST GEORGE      PTCLDY    56  32  40 CALM      30.08F
HANKSVILLE     CLEAR     41  30  65 CALM      30.12F
BLANDING       CLEAR     38  21  49 N7        30.24F WCI  33

$$

REGIONAL REPORTS     COLORADO/ARIZONA

CITY           SKY/WX    TMP DP  RH WIND       PRES   REMARKS
CRAIG, CO      CLOUDY    30  23  75 CALM      30.16S
GRAND JUNCTION CLEAR     45  28  51 SE5       30.13S
RIFLE, CO      CLOUDY    38  26  62 S5        30.16S WCI  34
MONTROSE, CO   CLOUDY    42  30  62 SE13      30.19F
CORTEZ, CO     CLOUDY    34  28  79 NE8       30.18F WCI  27
COLORADO CITY    N/A     41  36  81 SE5       30.18F
PAGE, AZ       CLEAR     52  28  39 W3        30.11F
GRAND CANYON   CLEAR     31  29  92 CALM      30.24F
KINGMAN, AZ    CLEAR     51  25  36 SE10      30.14F
FLAGSTAFF, AZ  CLEAR     31  28  89 CALM      30.26F

$$

REGIONAL REPORTS    NEVADA/IDAHO/WYOMING

CITY           SKY/WX    TMP DP  RH WIND       PRES   REMARKS
LAS VEGAS, NV  MOCLDY    68  17  14 S12       30.01S
ELY, NY        CLOUDY    44  27  51 S12       30.08S
ELKO, NV       LGT RAIN  44  40  85 W9        30.09F
POCATELLO, ID  LGT RAIN  45  43  93 SW12      30.07S
BURLEY, ID     LGT RAIN  45  41  86 W9        30.07S
FORT BRIDGER,    N/A     42  32  68 CALM      30.12S
EVANSTON, WY   CLOUDY    39  26  59 SW7       30.09S WCI  34
ROCK SPRINGS,  CLOUDY    42  31  64 S5        30.09S
KEMMERER, WY     N/A     34  25  69 CALM      30.10S

$$




USA.gov is the U.S. government's official web portal to all federal, state and local government web resources and services.